• In Belarus
  • List of Countries
  • For 7 days
  • Water Temperature
  • Satellite Maps
  • Weather Map
  • Weather Widgets
  • user-avatar
    Login

    Hourly Weather Munsingen

    Today, 23 September, Sunday

    Time Temperature Precipitation Wind Pressure Humidity
    00:00 +17°C° 0.1 mm 2 mps 717 mmHg 73%
    01:00 +17°C° 0.1 mm 2 mps 717 mmHg 73%
    02:00 +17°C° 0 mm 2 mps 717 mmHg 73%
    03:00 +17°C° 0 mm 2 mps 717 mmHg 73%
    04:00 +17°C° 0 mm 3 mps 717 mmHg 72%
    05:00 +17°C° 0 mm 3 mps 716 mmHg 74%
    06:00 +17°C° 0 mm 3 mps 716 mmHg 75%
    07:00 +17°C° 0 mm 3 mps 716 mmHg 76%
    08:00 +19°C° 0 mm 3 mps 716 mmHg 73%
    09:00 +21°C° 0 mm 3 mps 717 mmHg 69%
    10:00 +24°C° 0 mm 3 mps 717 mmHg 65%
    11:00 +25°C° 0 mm 4 mps 716 mmHg 62%
    12:00 +26°C° 0 mm 4 mps 716 mmHg 59%
    13:00 +27°C° 0 mm 4 mps 716 mmHg 57%
    14:00 +27°C° 0.2 mm 5 mps 715 mmHg 58%
    15:00 +27°C° 0.2 mm 5 mps 715 mmHg 60%
    16:00 +27°C° 0.2 mm 5 mps 714 mmHg 61%
    17:00 +25°C° 0.6 mm 5 mps 714 mmHg 68%
    18:00 +22°C° 0.6 mm 5 mps 714 mmHg 75%
    19:00 +21°C° 0.6 mm 4 mps 714 mmHg 83%
    20:00 +20°C° 1.3 mm 4 mps 714 mmHg 86%
    21:00 +19°C° 1.3 mm 4 mps 715 mmHg 90%
    22:00 +18°C° 1.3 mm 4 mps 715 mmHg 93%
    23:00 +17°C° 1.4 mm 4 mps 716 mmHg 94%

    Tomorrow, 24 September, Monday

    Time Temperature Precipitation Wind Pressure Humidity
    00:00 +16°C° 1.4 mm 3 mps 717 mmHg 94%
    01:00 +15°C° 1.4 mm 2 mps 717 mmHg 95%
    02:00 +14°C° 0.4 mm 2 mps 718 mmHg 95%
    03:00 +13°C° 0.4 mm 2 mps 718 mmHg 95%
    04:00 +12°C° 0.4 mm 2 mps 719 mmHg 94%
    05:00 +12°C° 0.1 mm 2 mps 719 mmHg 95%
    06:00 +10°C° 0.1 mm 3 mps 719 mmHg 95%
    07:00 +10°C° 0.1 mm 3 mps 720 mmHg 95%
    08:00 +10°C° 0 mm 3 mps 720 mmHg 91%
    09:00 +11°C° 0 mm 3 mps 721 mmHg 86%
    10:00 +11°C° 0 mm 4 mps 721 mmHg 82%
    11:00 +12°C° 0 mm 4 mps 721 mmHg 78%
    12:00 +12°C° 0 mm 4 mps 721 mmHg 73%
    13:00 +13°C° 0 mm 4 mps 721 mmHg 69%
    14:00 +13°C° 0 mm 4 mps 721 mmHg 66%
    15:00 +14°C° 0 mm 4 mps 721 mmHg 62%
    16:00 +14°C° 0 mm 4 mps 721 mmHg 59%
    17:00 +13°C° 0 mm 4 mps 721 mmHg 65%
    18:00 +11°C° 0 mm 4 mps 722 mmHg 70%
    19:00 +10°C° 0 mm 3 mps 722 mmHg 75%
    20:00 +9°C° 0 mm 3 mps 722 mmHg 76%
    21:00 +8°C° 0 mm 3 mps 723 mmHg 77%
    22:00 +8°C° 0 mm 3 mps 723 mmHg 78%
    23:00 +8°C° 0 mm 3 mps 723 mmHg 77%

    Day after tomorrow, 25 September, Tuesday

    Time Temperature Precipitation Wind Pressure Humidity
    00:00 +7°C° 0 mm 3 mps 723 mmHg 76%
    01:00 +7°C° 0 mm 3 mps 723 mmHg 75%
    02:00 +7°C° 0 mm 3 mps 723 mmHg 76%
    03:00 +7°C° 0 mm 3 mps 723 mmHg 78%
    04:00 +6°C° 0 mm 2 mps 723 mmHg 79%
    05:00 +6°C° 0 mm 2 mps 723 mmHg 80%
    06:00 +6°C° 0 mm 2 mps 723 mmHg 81%
    07:00 +6°C° 0 mm 2 mps 723 mmHg 82%
    08:00 +9°C° 0 mm 3 mps 723 mmHg 74%
    09:00 +11°C° 0 mm 3 mps 723 mmHg 65%
    10:00 +13°C° 0 mm 3 mps 723 mmHg 57%
    11:00 +14°C° 0 mm 3 mps 723 mmHg 54%
    12:00 +17°C° 0 mm 3 mps 723 mmHg 51%
    13:00 +18°C° 0 mm 3 mps 723 mmHg 48%
    14:00 +18°C° 0 mm 3 mps 723 mmHg 50%
    15:00 +17°C° 0 mm 3 mps 723 mmHg 52%
    16:00 +17°C° 0 mm 3 mps 722 mmHg 54%
    17:00 +14°C° 0 mm 3 mps 722 mmHg 63%
    18:00 +13°C° 0 mm 2 mps 722 mmHg 72%
    19:00 +10°C° 0 mm 2 mps 723 mmHg 81%
    20:00 +9°C° 0 mm 2 mps 723 mmHg 83%
    21:00 +9°C° 0 mm 2 mps 723 mmHg 85%
    22:00 +9°C° 0 mm 1 mps 723 mmHg 87%
    23:00 +9°C° 0 mm 1 mps 723 mmHg 88%

    26 September, Wednesday

    Time Temperature Precipitation Wind Pressure Humidity
    00:00 +9°C° 0 mm 1 mps 723 mmHg 88%
    01:00 +8°C° 0 mm 1 mps 724 mmHg 88%
    02:00 +8°C° 0 mm 1 mps 724 mmHg 88%
    03:00 +8°C° 0 mm 1 mps 724 mmHg 87%
    04:00 +8°C° 0 mm 1 mps 723 mmHg 86%
    05:00 +9°C° 0 mm 1 mps 724 mmHg 83%
    06:00 +9°C° 0 mm 1 mps 724 mmHg 81%
    07:00 +10°C° 0 mm 1 mps 724 mmHg 78%
    08:00 +13°C° 0 mm 1 mps 724 mmHg 69%
    09:00 +16°C° 0 mm 1 mps 724 mmHg 60%
    10:00 +19°C° 0 mm 0 mps 725 mmHg 50%
    11:00 +22°C° 0 mm 1 mps 725 mmHg 48%
    12:00 +23°C° 0 mm 1 mps 725 mmHg 46%
    13:00 +24°C° 0 mm 1 mps 725 mmHg 45%
    14:00 +24°C° 0 mm 1 mps 724 mmHg 47%
    15:00 +24°C° 0 mm 1 mps 724 mmHg 49%
    16:00 +23°C° 0 mm 1 mps 724 mmHg 52%
    17:00 +21°C° 0 mm 1 mps 723 mmHg 62%
    18:00 +18°C° 0 mm 1 mps 723 mmHg 72%
    19:00 +15°C° 0 mm 1 mps 723 mmHg 82%
    20:00 +14°C° 0 mm 1 mps 723 mmHg 83%
    21:00 +14°C° 0 mm 1 mps 723 mmHg 83%
    22:00 +13°C° 0 mm 1 mps 723 mmHg 83%
    23:00 +13°C° 0 mm 1 mps 723 mmHg 83%

    27 September, Thursday

    Time Temperature Precipitation Wind Pressure Humidity
    00:00 +13°C° 0 mm 1 mps 723 mmHg 83%
    01:00 +13°C° 0 mm 1 mps 723 mmHg 83%
    02:00 +13°C° 0 mm 1 mps 723 mmHg 83%
    03:00 +12°C° 0 mm 1 mps 723 mmHg 82%
    04:00 +12°C° 0 mm 1 mps 723 mmHg 82%
    05:00 +12°C° 0 mm 1 mps 723 mmHg 81%
    06:00 +13°C° 0 mm 1 mps 723 mmHg 79%
    07:00 +13°C° 0 mm 1 mps 722 mmHg 78%
    08:00 +16°C° 0 mm 1 mps 723 mmHg 68%
    09:00 +20°C° 0 mm 1 mps 723 mmHg 59%
    10:00 +21°C° 0 mm 0 mps 723 mmHg 49%
    11:00 +24°C° 0 mm 1 mps 723 mmHg 47%
    12:00 +25°C° 0 mm 1 mps 722 mmHg 44%
    13:00 +26°C° 0 mm 1 mps 722 mmHg 41%
    14:00 +26°C° 0 mm 1 mps 721 mmHg 44%
    15:00 +25°C° 0 mm 1 mps 721 mmHg 46%
    16:00 +25°C° 0 mm 1 mps 720 mmHg 48%
    17:00 +22°C° 0 mm 1 mps 720 mmHg 58%
    18:00 +20°C° 0 mm 1 mps 720 mmHg 68%
    19:00 +16°C° 0 mm 1 mps 719 mmHg 78%
    20:00 +15°C° 0 mm 1 mps 719 mmHg 79%
    21:00 +15°C° 0 mm 1 mps 719 mmHg 81%
    22:00 +14°C° 0 mm 1 mps 719 mmHg 82%
    23:00 +14°C° 0 mm 1 mps 719 mmHg 81%

    28 September, Friday

    Time Temperature Precipitation Wind Pressure Humidity
    00:00 +13°C° 0 mm 1 mps 719 mmHg 81%
    01:00 +13°C° 0 mm 1 mps 718 mmHg 80%
    02:00 +13°C° 0 mm 1 mps 718 mmHg 79%
    03:00 +13°C° 0 mm 1 mps 717 mmHg 77%
    04:00 +12°C° 0 mm 1 mps 717 mmHg 75%
    05:00 +12°C° 0 mm 1 mps 717 mmHg 74%
    06:00 +12°C° 0 mm 1 mps 717 mmHg 72%
    07:00 +12°C° 0 mm 1 mps 717 mmHg 70%
    08:00 +15°C° 0 mm 1 mps 717 mmHg 64%
    09:00 +19°C° 0 mm 1 mps 717 mmHg 57%
    10:00 +22°C° 0 mm 1 mps 718 mmHg 50%
    11:00 +23°C° 0 mm 1 mps 717 mmHg 48%
    12:00 +24°C° 0 mm 1 mps 717 mmHg 46%
    13:00 +25°C° 0 mm 2 mps 717 mmHg 44%
    14:00 +24°C° 0 mm 2 mps 716 mmHg 46%
    15:00 +24°C° 0 mm 2 mps 716 mmHg 49%
    16:00 +23°C° 0 mm 2 mps 715 mmHg 52%
    17:00 +21°C° 0 mm 1 mps 715 mmHg 62%
    18:00 +18°C° 0 mm 1 mps 715 mmHg 73%
    19:00 +15°C° 0 mm 1 mps 715 mmHg 83%
    20:00 +14°C° 0 mm 1 mps 716 mmHg 85%
    21:00 +14°C° 0 mm 1 mps 716 mmHg 86%
    22:00 +13°C° 0 mm 1 mps 716 mmHg 88%
    23:00 +13°C° 0 mm 1 mps 716 mmHg 88%
    Show more